Location: La Diote
(43.4262°N, 5.5229°E)
Time: 13:22:33
(UTC+00:00)

Daily predictions for brighter satellites

Satellite Brightness Start Highest point End
(mag) Time Altitude Azimuth Time Altitude Azimuth Time Altitude Azimuth
Cosmos 1825 2.7 18:51:29 10° N 18:55:04 38° ENE 18:58:36 10° SSE
MetOp-A 4.3 18:52:09 10° SSE 18:57:23 60° ENE 19:02:40 10° N
Cosmos 2227 Rocket 3.5 18:53:39 10° SE 18:57:24 18° E 19:01:09 10° ENE
Abrixas rocket 2.3 18:56:38 10° W 18:58:04 28° NNW 18:59:30 10° NE
Exosat Rocket 4.0 18:52:13 10° NNW 18:58:20 53° ENE 19:03:17 10° SE
ATLAS 2AS CENTAUR R/B 3.6 18:51:18 10° SW 18:59:08 65° NW 19:06:54 10° NNE
BREEZE-M DEB (TANK) 3.9 18:56:57 10° W 18:59:41 61° NNW 19:05:57 10° ENE
Cosmos 1092 Rocket 4.0 18:55:55 10° N 19:02:11 72° E 19:08:19 10° SSE
Cosmos 2297 Rocket 3.1 18:59:12 10° SSE 19:03:51 27° ESE 19:08:31 10° NE
Cosmos 2058 3.2 19:00:39 10° N 19:04:43 49° ENE 19:08:44 10° SSE
FALCON 9 DEB 4.0 19:02:26 10° SSW 19:04:58 24° SE 19:07:31 10° ENE
SL-08 RB Rocket 4.4 19:01:14 10° S 19:05:49 60° W 19:10:25 10° NNW
Cosmos 405 3.3 19:02:34 10° SSW 19:06:00 71° WNW 19:09:29 10° N
Lacrosse 5 rocket 4.1 19:04:38 10° NW 19:06:45 13° N 19:08:54 10° NNE
ARGOS 4.3 19:01:48 10° S 19:06:57 47° W 19:12:09 10° NNW
YAOGAN 1 4.5 19:03:55 10° SSW 19:07:47 32° W 19:11:41 10° NNW
FALCON 9 DEB 3.5 19:06:51 10° SSW 19:09:37 33° SE 19:12:23 10° ENE
Resurs 01 Rocket 3.1 19:08:48 10° ESE 19:12:05 21° ENE 19:15:23 10° NNE
Cosmos 2219 4.0 19:08:15 10° SSE 19:12:58 29° ESE 19:17:43 10° NE
Resurs 1-3 4.4 19:09:44 10° SE 19:13:40 33° ENE 19:17:38 10° N
BREEZE-M DEB (TANK) 3.8 19:11:27 10° W 19:14:55 60° N 19:25:59 10° ENE
Cosmos 2333 Rocket 2.9 19:11:35 10° NNW 19:17:13 56° WSW 19:22:47 10° S
SJ-6B 2.7 19:13:53 10° SSE 19:17:34 63° ENE 19:21:19 10° N
Cosmos 1689 Rocket 4.4 19:17:03 10° N 19:19:32 28° WNW 19:22:00 10° SW
Cosmos 2084 Rocket 4.2 19:17:44 10° S 19:21:05 27° ESE 19:24:29 10° ENE
FALCON 9 DEB 3.0 19:18:43 10° SW 19:21:38 47° SE 19:24:35 10° ENE
CZ-2C R/B 3.9 19:16:52 10° N 19:21:49 45° WNW 19:26:48 10° SW
Cosmos 389 Rocket 2.9 19:18:31 10° SSE 19:21:49 40° E 19:25:11 10° NNE
CSL-04 Rocket 4.5 19:18:46 10° S 19:23:54 52° W 19:29:03 10° NNW
Ariane Rocket 3.2 19:19:06 10° SSE 19:24:00 54° ENE 19:28:56 10° N
ERS-2 3.0 19:20:31 10° N 19:24:05 53° WNW 19:27:38 10° SSW
Cosmos 614 Rocket 3.9 19:20:08 10° SSW 19:25:15 74° ESE 19:30:22 10° NNE
Cosmos 2251 Rocket 3.7 19:21:39 10° SSW 19:27:00 79° WNW 19:32:22 10° NNE
ATLAS 3B R/B 3.0 19:24:34 10° NW 19:31:38 77° WSW 19:38:58 10° SSE
Cosmos 2279 Rocket 4.0 19:25:55 10° S 19:31:57 60° E 19:38:02 10° NNE
MOS 1 4.3 19:31:43 10° SSE 19:37:19 75° ENE 19:42:58 10° N
Cosmos-2242 4.0 19:35:48 16° SE 19:38:13 26° E 19:41:50 10° NNE
Cosmos 1980 3.8 19:34:01 10° NNW 19:39:41 64° ENE 19:44:11 16° SE
SL-16 R/B 3.6 19:35:24 10° N 19:40:02 25° NE 19:43:26 15° E
Cosmos 2026 Rocket 4.2 19:34:09 10° N 19:40:14 75° W 19:46:21 10° S
USA 215 4.4 19:34:55 10° E 19:40:44 36° NNE 19:46:32 10° NW
Cosmos 2151 3.7 19:37:51 10° N 19:41:50 35° ENE 19:44:10 20° SE
FALCON 9 DEB 2.7 19:40:24 10° SW 19:43:26 64° SE 19:46:29 10° ENE
SPOT 3 Rocket 4.0 19:40:39 17° SE 19:44:19 43° ENE 19:49:12 10° N
Cosmos 1455 4.0 19:42:41 10° SW 19:46:05 33° WNW 19:49:30 10° N
COSMOS 2455 3.6 19:41:59 10° SSE 19:47:01 29° ESE 19:52:05 10° NE
IRS-1A Rocket 4.3 19:44:05 10° SSE 19:49:40 87° WSW 19:55:25 10° NNW
SL-4 R/B 2.1 19:46:02 10° SW 19:50:18 67° SE 19:54:54 10° ENE
USA 186 3.9 19:49:55 10° SSW 19:52:43 26° W 19:55:27 10° NW
BREEZE M DEB (TANK) 3.9 19:50:36 10° SSW 19:53:41 39° SE 20:01:31 10° ENE
Cosmos 2219 Rocket 3.7 19:49:06 10° NW 19:54:08 33° WSW 19:59:07 10° SSW
BREEZE-M DEB (TANK) 4.2 19:53:33 10° WSW 19:55:25 17° SSW 19:57:33 12° S
IGS 5A 3.9 19:54:21 25° SE 19:56:19 44° ENE 20:00:17 10° N
OBJECT-B 2.3 19:54:28 10° SSW 19:57:26 35° W 20:00:27 10° NNW
Landsat 7 4.3 19:55:13 24° SE 19:57:43 44° ENE 20:02:14 10° N
Cosmos 1076 Rocket 3.5 19:53:46 10° N 19:58:07 82° W 20:01:45 14° S
COSMOS 2428 4.1 19:53:14 10° NW 19:58:27 37° WSW 20:03:39 10° S
Cosmos 2266 Rocket 4.3 19:52:33 10° N 19:58:43 49° ENE 20:02:36 22° SE
ATLAS 5 CENTAUR R/B 2.7 19:58:00 10° WNW 19:59:42 23° SW 20:01:00 16° S
Cosmos 2292 Rocket 4.1 19:58:23 10° N 20:04:44 85° W 20:08:34 16° S
Cosmos 2344 4.2 19:57:29 10° SW 20:04:48 57° NW 20:12:38 10° NNE
ARIANE 5 R/B 3.9 20:04:04 22° E 20:05:08 25° ENE 20:08:43 10° NNE
Cosmos 407 Rocket 3.4 20:00:41 10° SSW 20:05:49 90° SE 20:11:01 10° NNE
USA 245 4.3 20:05:50 25° ENE 20:05:54 25° ENE 20:08:32 10° NNE
Cosmos 1356 4.5 20:02:41 10° NNW 20:05:57 43° W 20:08:40 14° SSW
IRIDIUM 104 4.4 20:04:39 10° S 20:09:52 83° W 20:15:07 10° N
Cosmos 1023 Rocket 4.4 20:05:48 10° SSW 20:10:53 90° W 20:16:00 10° NNE
MetOp-B 4.3 20:09:17 27° SE 20:12:05 58° ENE 20:17:21 10° N
Meteor 2-3 Rocket 3.7 20:09:00 10° N 20:14:44 66° ENE 20:17:47 28° SSE
Cosmos 44 Rocket 3.7 20:12:41 10° S 20:17:26 43° ESE 20:22:19 10° NE
Meteor 1-27 4.4 20:14:09 22° SSE 20:17:41 54° E 20:23:21 10° NNE
Cosmos 405 Rocket 4.3 20:14:27 10° NNW 20:18:05 34° W 20:21:34 10° SSW
Cosmos 1140 Rocket 3.5 20:13:58 10° SSW 20:19:06 79° WNW 20:24:16 10° NNE
Cosmos 1812 Rocket 4.2 20:16:34 10° SSW 20:20:56 57° W 20:25:21 10° N
Cosmos 1954 Rocket 3.9 20:19:29 18° S 20:23:12 59° ESE 20:28:17 10° NNE
CZ-2C R/B 3.5 20:21:20 10° NNE 20:25:46 69° ESE 20:27:43 32° S
Timation 2 Rocket 4.0 20:19:26 10° SSW 20:26:03 88° WNW 20:32:25 10° NNE
Cosmos 2237 Rocket 2.6 20:21:55 10° NNW 20:27:27 58° WSW 20:30:47 24° S
Cosmos 2263 Rocket 4.0 20:34:38 14° ENE 20:34:38 14° ENE 20:35:57 10° ENE
Spot 2 Rocket 3.7 20:32:07 41° ESE 20:33:29 53° ENE 20:38:24 10° N
CARTOSAT-1 4.1 20:33:27 40° E 20:33:48 40° ENE 20:37:51 10° N
BREEZE M DEB (TANK) 3.5 20:26:36 10° W 20:34:32 50° NNW 20:36:34 19° NE
Cosmos 1766 Rocket 3.6 20:31:40 10° N 20:35:57 55° E 20:36:22 53° ESE
FALCON 9 DEB 4.2 20:37:46 10° W 20:40:39 38° NNW 20:41:37 29° NNE
Cosmos 2227 Rocket 2.5 20:35:13 10° SW 20:40:51 66° WNW 20:46:30 10° NNE
Cosmos 2082 3.6 20:37:15 21° S 20:40:58 68° ESE 20:46:33 10° NNE
Cosmos 1633 3.8 20:38:49 10° NNW 20:42:08 36° W 20:43:20 28° SW
Okean 3 Rocket 3.5 20:40:37 10° N 20:45:09 71° E 20:45:39 64° SE
Cosmos 1655 Rocket 4.3 20:40:41 10° NNW 20:46:52 63° W 20:50:54 22° SSW
Lacrosse 5 rocket 3.9 20:44:37 10° NNW 20:47:24 16° NNE 20:49:59 11° NE
Cosmos 2297 Rocket 3.2 20:42:11 10° SW 20:47:37 46° WNW 20:53:04 10° NNE
Cosmos 1869 3.1 20:47:58 85° ESE 20:48:01 85° E 20:51:59 10° N
Resurs 01 Rocket 2.7 20:46:10 25° SSW 20:48:17 41° W 20:52:32 10° NNW
Meteor 1-4 Rocket 3.1 20:50:30 51° NNE 20:50:30 51° NNE 20:53:13 10° N
Cosmos 468 Rocket 4.2 20:46:09 10° N 20:51:09 50° ENE 20:51:46 47° E
Genesis I 3.9 20:48:26 10° NW 20:52:17 45° WSW 20:52:33 44° SW
Cosmos 2219 4.3 20:51:34 10° SW 20:56:54 43° WNW 21:02:16 10° NNE
Terra 2.3 21:03:52 44° ENE 21:03:52 44° ENE 21:08:13 10° N
Cosmos 1763 Rocket 3.4 20:58:59 10° NNW 21:04:02 62° ENE 21:04:17 61° E
Meteor 2-8 Rocket 4.5 21:02:57 32° SSW 21:05:57 80° W 21:12:07 10° N
BREEZE-M DEB (TANK) 4.5 21:08:06 10° WNW 21:08:46 18° WNW 21:08:46 18° WNW
Cosmos 540 Rocket 4.2 21:06:55 10° N 21:11:41 39° ENE 21:11:41 39° ENE
SPOT 5 2.7 21:14:08 77° NE 21:14:08 77° NE 21:18:47 10° N
SPOT 1/Viking Rocket 4.2 21:14:16 39° SW 21:15:40 50° W 21:20:46 10° NNW
Meteor 2-2 Rocket 4.1 21:15:41 68° SE 21:16:08 72° E 21:21:49 10° NNE
NOSS 3-1 (C) 4.2 21:10:09 10° NNW 21:17:38 67° NE 21:20:23 45° ESE
Cosmos 1842 Rocket 4.1 21:20:26 52° NNE 21:20:26 52° NNE 21:23:53 10° NNE
USA 215 3.2 21:21:35 55° ESE 21:23:13 82° NE 21:29:47 10° NW
SL-16 R/B 2.5 21:18:58 10° NNW 21:24:32 57° WSW 21:25:19 53° SW
SL-4 R/B 3.6 21:26:01 10° W 21:30:14 39° NNW 21:33:32 17° NE
SL-08 ROCKET BODY 4.3 21:25:24 10° N 21:31:26 70° E 21:31:37 69° E
COSMOS 2455 3.6 21:26:50 10° SW 21:32:40 51° NW 21:38:32 10° NNE
ERS-1 Rocket 3.1 21:33:52 66° W 21:33:52 66° W 21:38:52 10° NNW
Cosmos 1408 Rocket 4.2 21:31:21 10° NNW 21:34:52 52° NW 21:34:52 52° NW
Cosmos 2221 3.5 21:41:54 45° NNW 21:41:54 45° NNW 21:45:04 10° N
ARIANE 5 R/B 4.0 21:41:36 32° W 21:41:36 32° W 21:45:25 10° NNW
Cosmos 1943 3.5 21:44:57 10° NNW 21:50:06 57° NE 21:50:06 57° NE
Cosmos 1745 Rocket 3.9 21:47:14 10° N 21:53:25 72° ENE 21:53:25 72° ENE
SeaSat 1 4.4 21:49:46 10° NE 21:51:18 19° NE 21:51:18 19° NE
S3M 3.9 22:05:25 85° NE 22:05:25 85° NE 22:11:41 10° N
Cosmos 2263 Rocket 2.5 22:16:15 61° NNW 22:16:15 61° NNW 22:21:12 10° NNE
Aureole 1 Rocket 4.3 22:17:34 47° WNW 22:17:34 47° WNW 22:22:00 10° N
USA 229 DEB 3.8 22:19:33 10° NW 22:26:56 77° WSW 22:27:01 77° SW
USA 229 3.8 22:19:39 10° NW 22:27:02 78° WSW 22:27:07 78° SW
Lacrosse 5 rocket 3.4 22:23:13 10° NW 22:25:35 29° NNW 22:25:35 29° NNW
Terra 4.0 22:42:44 19° WNW 22:42:44 19° WNW 22:45:12 10° NW
NOSS 3-1 (A) 4.1 22:37:20 10° NW 22:44:58 69° WSW 22:45:03 69° SW
SL-4 R/B 4.4 23:06:41 10° WNW 23:09:10 24° NNW 23:09:10 24° NNW
Cosmos 2184 Rocket 4.4 23:09:47 10° N 23:14:58 57° NNE 23:14:58 57° NNE
ATLAS 5 CENTAUR R/B 4.0 23:20:33 10° NNW 23:25:06 26° NE 23:27:06 22° ENE
SeaSat 1 4.1 23:27:28 10° N 23:31:05 30° NW 23:31:05 30° NW
Cosmos 2074 Rocket 4.5 23:36:15 10° N 23:41:12 56° NNW 23:41:12 56° NNW
USA 281 3.6 23:43:08 56° ENE 23:43:10 56° ENE 23:49:35 10° NNW
